User: anonymous
Location: Caltech
(34.1382°N, 118.1253°W)
Time: 07:36:06
(UTC-07:00)
Language:

SL-16 R/B - Orbit

View from above orbital plane
View from above orbital plane
View from above satellite
View from above satellite

Ground track
Ground track

The orbit data is extracted from the following two-line orbital elements,

1 28353U 04021B   14231.10019406  .00000305  00000-0  18499-3 0  8216
2 28353 071.0000 084.8648 0006297 313.7985 195.7048 14.14079135526113
Epoch (UTC): 19 August 2014 02:24:16
Eccentricity: 0.0006297
inclination: 71.0000°
perigee height: 841 km
apogee height: 850 km
right ascension of ascending node: 84.8648°
argument of perigee: 313.7985°
revolutions per day: 14.14079135
mean anomaly at epoch: 195.7048°
orbit number at epoch: 52611

The dashed part of the orbit path shows where the satellite is in the earth's shadow,  

DLR